Regional Weather Roundup
Issued by NWS Charleston, WV

Home | Current Version | Previous Version | Graphics & Text | Print | Product List | Glossary On
Versions: 1 2 3 4 5 6 7 8 9 10 11 12 13 14 15 16 17 18 19 20 21 22 23 24 25 26 27 28 29 30 31 32 33 34 35 36 37 38 39 40 41 42 43 44 45 46 47 48 49 50
000
ASUS41 KRLX 170710
RWRRLX
West Virginia Regional Weather Roundup
National Weather Service Charleston WV
300 AM EDT WED SEP 17 2014

Note: "fair" indicates few or no clouds below 12,000 feet with no
significant weather and/or obstructions to visibility.

WVZ003-170800-
Northern Panhandle of West Virginia

CITY           SKY/WX    TMP DP  RH WIND       PRES   REMARKS
WHEELING       CLEAR     51  48  89 NE3       30.08F
$$

WVZ009-170800-
Northwest West Virginia

CITY           SKY/WX    TMP DP  RH WIND       PRES   REMARKS
PARKERSBURG    PTCLDY    50  48  93 CALM      30.10F
$$

WVZ006-170800-
Western West Virginia

CITY           SKY/WX    TMP DP  RH WIND       PRES   REMARKS
HUNTINGTON     CLEAR     51  50  96 CALM      30.07F
$$

WVZ015-170800-
West Central West Virginia

CITY           SKY/WX    TMP DP  RH WIND       PRES   REMARKS
CHARLESTON     FOG       55  55 100 CALM      30.07F VSB 1/4
$$

WVZ031-170800-
North Central West Virginia

CITY           SKY/WX    TMP DP  RH WIND       PRES   REMARKS
CLARKSBURG     FOG       48  47  96 CALM      30.08S VSB 3/4
MORGANTOWN     CLEAR     51  46  83 CALM      30.09F HAZE
$$

WVZ035-042-045-170800-
South Central West Virginia

CITY           SKY/WX    TMP DP  RH WIND       PRES   REMARKS
BECKLEY        CLOUDY    55  52  89 CALM      30.08F
BLUEFIELD      PTCLDY    56  53  90 CALM      30.09F
LEWISBURG      FOG       51  49  93 CALM      30.08F VSB 1/4
$$

WVZ047-170800-
Northern Mountains of West Virginia

CITY           SKY/WX    TMP DP  RH WIND       PRES   REMARKS
ELKINS         CLOUDY    51  48  89 CALM      30.10F FOG
$$

WVZ052-170800-
Eastern Panhandle of West Virginia

CITY           SKY/WX    TMP DP  RH WIND       PRES   REMARKS
MARTINSBURG    CLEAR     49  45  86 CALM      30.07S
PETERSBURG     CLEAR     44  42  93 CALM      30.10F FOG
$$



USA.gov is the U.S. government's official web portal to all federal, state and local government web resources and services.